owner,sensor,date,latitude,longitude,air_temperature,qcFlag 
TABS,ioos:station:wmo:42043:1,2003-07-21T13:09:00Z,28.9818,-94.9186,29.0,11144222 
TABS,ioos:station:wmo:42043:1,2003-07-21T13:39:00Z,28.9818,-94.9186,29.0,11144222 
TABS,ioos:station:wmo:42043:1,2003-07-21T14:09:00Z,28.9818,-94.9186,29.2,11144222 
TABS,ioos:station:wmo:42043:1,2003-07-21T14:39:00Z,28.9818,-94.9186,29.1,11144222 
TABS,ioos:station:wmo:42043:1,2003-07-21T15:09:00Z,28.9818,-94.9186,29.1,11144222 
TABS,ioos:station:wmo:42043:1,2003-07-21T15:39:00Z,28.9818,-94.9186,29.1,11144222 
TABS,ioos:station:wmo:42043:1,2003-07-21T16:09:00Z,28.9818,-94.9186,29.1,11144222 
TABS,ioos:station:wmo:42043:1,2003-07-21T16:39:00Z,28.9818,-94.9186,29.2,11144222 
TABS,ioos:station:wmo:42043:1,2003-07-21T17:09:00Z,28.9818,-94.9186,29.3,11144222 
TABS,ioos:station:wmo:42043:1,2003-07-21T17:39:00Z,28.9818,-94.9186,29.3,11144222 
TABS,ioos:station:wmo:42043:1,2003-07-21T18:09:00Z,28.9818,-94.9186,29.4,11144222 
TABS,ioos:station:wmo:42043:1,2003-07-21T18:39:00Z,28.9818,-94.9186,29.4,11144222 
TABS,ioos:station:wmo:42043:1,2003-07-21T19:09:00Z,28.9818,-94.9186,29.4,11144222 
TABS,ioos:station:wmo:42043:1,2003-07-21T19:39:00Z,28.9818,-94.9186,29.5,11144222 
TABS,ioos:station:wmo:42043:1,2003-07-21T20:09:00Z,28.9818,-94.9186,29.6,11144222 
TABS,ioos:station:wmo:42043:1,2003-07-21T20:39:00Z,28.9818,-94.9186,29.6,11144222 
TABS,ioos:station:wmo:42043:1,2003-07-21T21:09:00Z,28.9818,-94.9186,29.7,11144222 
TABS,ioos:station:wmo:42043:1,2003-07-21T21:39:00Z,28.9818,-94.9186,29.7,11144222 
TABS,ioos:station:wmo:42043:1,2003-07-21T22:09:00Z,28.9818,-94.9186,29.8,11144222 
TABS,ioos:station:wmo:42043:1,2003-07-21T22:39:00Z,28.9818,-94.9186,29.7,11144222 
TABS,ioos:station:wmo:42043:1,2003-07-21T23:09:00Z,28.9818,-94.9186,29.8,11144222 
TABS,ioos:station:wmo:42043:1,2003-07-21T23:39:00Z,28.9818,-94.9186,29.9,11144222 
TABS,ioos:station:wmo:42043:1,2003-07-22T00:09:00Z,28.9818,-94.9186,29.9,11144222 
TABS,ioos:station:wmo:42043:1,2003-07-22T00:39:00Z,28.9818,-94.9186,29.7,11144222 
TABS,ioos:station:wmo:42043:1,2003-07-22T01:09:00Z,28.9818,-94.9186,29.5,11144222 
TABS,ioos:station:wmo:42043:1,2003-07-22T01:39:00Z,28.9818,-94.9186,29.6,11144222 
TABS,ioos:station:wmo:42043:1,2003-07-22T02:09:00Z,28.9818,-94.9186,29.5,11144222 
TABS,ioos:station:wmo:42043:1,2003-07-22T02:39:00Z,28.9818,-94.9186,29.6,11144222 
TABS,ioos:station:wmo:42043:1,2003-07-22T03:09:00Z,28.9818,-94.9186,29.6,11144222 
TABS,ioos:station:wmo:42043:1,2003-07-22T03:39:00Z,28.9818,-94.9186,29.5,11144222 
TABS,ioos:station:wmo:42043:1,2003-07-22T04:09:00Z,28.9818,-94.9186,29.5,11144222 
TABS,ioos:station:wmo:42043:1,2003-07-22T04:39:00Z,28.9818,-94.9186,29.4,11144222 
TABS,ioos:station:wmo:42043:1,2003-07-22T05:09:00Z,28.9818,-94.9186,29.4,11144222 
TABS,ioos:station:wmo:42043:1,2003-07-22T05:39:00Z,28.9818,-94.9186,29.3,11144222 
TABS,ioos:station:wmo:42043:1,2003-07-22T06:09:00Z,28.9818,-94.9186,29.2,11144222 
TABS,ioos:station:wmo:42043:1,2003-07-22T06:39:00Z,28.9818,-94.9186,29.2,11144222 
TABS,ioos:station:wmo:42043:1,2003-07-22T07:09:00Z,28.9818,-94.9186,29.2,11144222 
TABS,ioos:station:wmo:42043:1,2003-07-22T07:39:00Z,28.9818,-94.9186,29.2,11144222 
TABS,ioos:station:wmo:42043:1,2003-07-22T08:09:00Z,28.9818,-94.9186,29.2,11144222 
TABS,ioos:station:wmo:42043:1,2003-07-22T08:39:00Z,28.9818,-94.9186,29.2,11144222 
TABS,ioos:station:wmo:42043:1,2003-07-22T09:09:00Z,28.9818,-94.9186,29.2,11144222 
TABS,ioos:station:wmo:42043:1,2003-07-22T09:39:00Z,28.9818,-94.9186,29.2,11144222 
TABS,ioos:station:wmo:42043:1,2003-07-22T10:09:00Z,28.9818,-94.9186,29.2,11144222 
TABS,ioos:station:wmo:42043:1,2003-07-22T10:39:00Z,28.9818,-94.9186,29.2,11144222 
TABS,ioos:station:wmo:42043:1,2003-07-22T11:09:00Z,28.9818,-94.9186,29.3,11144222 
TABS,ioos:station:wmo:42043:1,2003-07-22T11:39:00Z,28.9818,-94.9186,29.2,11144222 
TABS,ioos:station:wmo:42043:1,2003-07-22T12:09:00Z,28.9818,-94.9186,29.3,11144222 
TABS,ioos:station:wmo:42043:1,2003-07-22T12:39:00Z,28.9818,-94.9186,29.3,11144222 
TABS,ioos:station:wmo:42043:1,2003-07-22T13:09:00Z,28.9818,-94.9186,29.4,11144222 
TABS,ioos:station:wmo:42043:1,2003-07-22T13:39:00Z,28.9818,-94.9186,29.4,11144222 
TABS,ioos:station:wmo:42043:1,2003-07-22T14:09:00Z,28.9818,-94.9186,29.4,11144222 
TABS,ioos:station:wmo:42043:1,2003-07-22T14:39:00Z,28.9818,-94.9186,29.5,11144222 
TABS,ioos:station:wmo:42043:1,2003-07-22T15:09:00Z,28.9818,-94.9186,29.5,11144222 
TABS,ioos:station:wmo:42043:1,2003-07-22T15:39:00Z,28.9818,-94.9186,29.5,11144222 
TABS,ioos:station:wmo:42043:1,2003-07-22T16:09:00Z,28.9818,-94.9186,29.5,11144222 
TABS,ioos:station:wmo:42043:1,2003-07-22T16:39:00Z,28.9818,-94.9186,29.5,11144222 
TABS,ioos:station:wmo:42043:1,2003-07-22T17:09:00Z,28.9818,-94.9186,29.5,11144222 
TABS,ioos:station:wmo:42043:1,2003-07-22T17:39:00Z,28.9818,-94.9186,29.6,11144222 
TABS,ioos:station:wmo:42043:1,2003-07-22T18:09:00Z,28.9818,-94.9186,29.6,11144222 
TABS,ioos:station:wmo:42043:1,2003-07-22T18:39:00Z,28.9818,-94.9186,29.7,11144222 
TABS,ioos:station:wmo:42043:1,2003-07-22T19:09:00Z,28.9818,-94.9186,29.8,11144222 
TABS,ioos:station:wmo:42043:1,2003-07-22T19:39:00Z,28.9818,-94.9186,29.9,11144222 
TABS,ioos:station:wmo:42043:1,2003-07-22T20:09:00Z,28.9818,-94.9186,29.9,11144222 
TABS,ioos:station:wmo:42043:1,2003-07-22T20:39:00Z,28.9818,-94.9186,30.0,11144222 
TABS,ioos:station:wmo:42043:1,2003-07-22T21:09:00Z,28.9818,-94.9186,30.0,11144222 
TABS,ioos:station:wmo:42043:1,2003-07-22T21:39:00Z,28.9818,-94.9186,30.0,11144222 
TABS,ioos:station:wmo:42043:1,2003-07-22T22:09:00Z,28.9818,-94.9186,30.0,11144222 
TABS,ioos:station:wmo:42043:1,2003-07-22T22:39:00Z,28.9818,-94.9186,30.0,11144222 
TABS,ioos:station:wmo:42043:1,2003-07-22T23:09:00Z,28.9818,-94.9186,29.9,11144222 
TABS,ioos:station:wmo:42043:1,2003-07-22T23:39:00Z,28.9818,-94.9186,29.7,11144222 
TABS,ioos:station:wmo:42043:1,2003-07-23T00:09:00Z,28.9818,-94.9186,29.8,11144222 
TABS,ioos:station:wmo:42043:1,2003-07-23T00:39:00Z,28.9818,-94.9186,29.6,11144222 
TABS,ioos:station:wmo:42043:1,2003-07-23T01:09:00Z,28.9818,-94.9186,29.6,11144222 
TABS,ioos:station:wmo:42043:1,2003-07-23T01:39:00Z,28.9818,-94.9186,29.5,11144222 
TABS,ioos:station:wmo:42043:1,2003-07-23T02:09:00Z,28.9818,-94.9186,29.5,11144222 
TABS,ioos:station:wmo:42043:1,2003-07-23T02:39:00Z,28.9818,-94.9186,29.5,11144222 
TABS,ioos:station:wmo:42043:1,2003-07-23T03:09:00Z,28.9818,-94.9186,29.5,11144222 
TABS,ioos:station:wmo:42043:1,2003-07-23T03:39:00Z,28.9818,-94.9186,29.4,11144222 
TABS,ioos:station:wmo:42043:1,2003-07-23T04:09:00Z,28.9818,-94.9186,29.4,11144222 
TABS,ioos:station:wmo:42043:1,2003-07-23T04:39:00Z,28.9818,-94.9186,29.4,11144222 
TABS,ioos:station:wmo:42043:1,2003-07-23T05:09:00Z,28.9818,-94.9186,29.4,11144222 
TABS,ioos:station:wmo:42043:1,2003-07-23T05:39:00Z,28.9818,-94.9186,29.3,11144222 
TABS,ioos:station:wmo:42043:1,2003-07-23T06:09:00Z,28.9818,-94.9186,29.3,11144222 
TABS,ioos:station:wmo:42043:1,2003-07-23T06:39:00Z,28.9818,-94.9186,29.2,11144222 
TABS,ioos:station:wmo:42043:1,2003-07-23T07:09:00Z,28.9818,-94.9186,29.3,11144222 
TABS,ioos:station:wmo:42043:1,2003-07-23T07:39:00Z,28.9818,-94.9186,29.3,11144222 
TABS,ioos:station:wmo:42043:1,2003-07-23T08:09:00Z,28.9818,-94.9186,29.3,11144222 
TABS,ioos:station:wmo:42043:1,2003-07-23T08:39:00Z,28.9818,-94.9186,29.3,11144222 
TABS,ioos:station:wmo:42043:1,2003-07-23T09:09:00Z,28.9818,-94.9186,29.3,11144222 
TABS,ioos:station:wmo:42043:1,2003-07-23T09:39:00Z,28.9818,-94.9186,29.3,11144222 
TABS,ioos:station:wmo:42043:1,2003-07-23T10:09:00Z,28.9818,-94.9186,29.3,11144222 
TABS,ioos:station:wmo:42043:1,2003-07-23T10:39:00Z,28.9818,-94.9186,29.3,11144222 
TABS,ioos:station:wmo:42043:1,2003-07-23T11:09:00Z,28.9818,-94.9186,29.3,11144222 
TABS,ioos:station:wmo:42043:1,2003-07-23T11:39:00Z,28.9818,-94.9186,29.2,11144222 
TABS,ioos:station:wmo:42043:1,2003-07-23T12:09:00Z,28.9818,-94.9186,29.2,11144222 
TABS,ioos:station:wmo:42043:1,2003-07-23T12:39:00Z,28.9818,-94.9186,29.3,11144222 
TABS,ioos:station:wmo:42043:1,2003-07-23T13:09:00Z,28.9818,-94.9186,29.4,11144222 
TABS,ioos:station:wmo:42043:1,2003-07-23T13:39:00Z,28.9818,-94.9186,29.4,11144222 
TABS,ioos:station:wmo:42043:1,2003-07-23T14:09:00Z,28.9818,-94.9186,29.5,11144222 
TABS,ioos:station:wmo:42043:1,2003-07-23T14:39:00Z,28.9818,-94.9186,29.5,11144222 
TABS,ioos:station:wmo:42043:1,2003-07-23T15:09:00Z,28.9818,-94.9186,29.5,11144222 
TABS,ioos:station:wmo:42043:1,2003-07-23T15:39:00Z,28.9818,-94.9186,29.6,11144222 
TABS,ioos:station:wmo:42043:1,2003-07-23T16:09:00Z,28.9818,-94.9186,29.6,11144222 
TABS,ioos:station:wmo:42043:1,2003-07-23T16:39:00Z,28.9818,-94.9186,29.6,11144222 
TABS,ioos:station:wmo:42043:1,2003-07-23T17:09:00Z,28.9818,-94.9186,29.5,11144222 
TABS,ioos:station:wmo:42043:1,2003-07-23T17:39:00Z,28.9818,-94.9186,29.2,11144222 
TABS,ioos:station:wmo:42043:1,2003-07-23T18:09:00Z,28.9818,-94.9186,29.4,11144222 
TABS,ioos:station:wmo:42043:1,2003-07-23T18:39:00Z,28.9818,-94.9186,28.2,11144222 
TABS,ioos:station:wmo:42043:1,2003-07-23T19:09:00Z,28.9818,-94.9186,27.9,11144222 
TABS,ioos:station:wmo:42043:1,2003-07-23T19:39:00Z,28.9818,-94.9186,27.6,11144222 
TABS,ioos:station:wmo:42043:1,2003-07-23T20:09:00Z,28.9818,-94.9186,28.0,11144222 
TABS,ioos:station:wmo:42043:1,2003-07-23T20:39:00Z,28.9818,-94.9186,28.0,11144222 
TABS,ioos:station:wmo:42043:1,2003-07-23T21:09:00Z,28.9818,-94.9186,29.1,11144222 
TABS,ioos:station:wmo:42043:1,2003-07-23T21:39:00Z,28.9818,-94.9186,29.0,11144222 
TABS,ioos:station:wmo:42043:1,2003-07-23T22:09:00Z,28.9818,-94.9186,29.1,11144222 
TABS,ioos:station:wmo:42043:1,2003-07-23T22:39:00Z,28.9818,-94.9186,28.8,11144222 
TABS,ioos:station:wmo:42043:1,2003-07-23T23:09:00Z,28.9818,-94.9186,27.9,11144222 
TABS,ioos:station:wmo:42043:1,2003-07-23T23:39:00Z,28.9818,-94.9186,28.1,11144222 
TABS,ioos:station:wmo:42043:1,2003-07-24T00:09:00Z,28.9818,-94.9186,28.3,11144222 
TABS,ioos:station:wmo:42043:1,2003-07-24T00:39:00Z,28.9818,-94.9186,28.4,11144222 
TABS,ioos:station:wmo:42043:1,2003-07-24T01:09:00Z,28.9818,-94.9186,28.3,11144222 
TABS,ioos:station:wmo:42043:1,2003-07-24T01:39:00Z,28.9818,-94.9186,28.4,11144222 
TABS,ioos:station:wmo:42043:1,2003-07-24T02:09:00Z,28.9818,-94.9186,28.3,11144222 
TABS,ioos:station:wmo:42043:1,2003-07-24T02:39:00Z,28.9818,-94.9186,28.4,11144222 
TABS,ioos:station:wmo:42043:1,2003-07-24T03:09:00Z,28.9818,-94.9186,28.1,11144222 
TABS,ioos:station:wmo:42043:1,2003-07-24T03:39:00Z,28.9818,-94.9186,28.2,11144222 
TABS,ioos:station:wmo:42043:1,2003-07-24T04:09:00Z,28.9818,-94.9186,28.3,11144222 
TABS,ioos:station:wmo:42043:1,2003-07-24T04:39:00Z,28.9818,-94.9186,28.3,11144222 
TABS,ioos:station:wmo:42043:1,2003-07-24T05:09:00Z,28.9818,-94.9186,28.4,11144222 
TABS,ioos:station:wmo:42043:1,2003-07-24T05:39:00Z,28.9818,-94.9186,28.4,11144222 
TABS,ioos:station:wmo:42043:1,2003-07-24T06:09:00Z,28.9818,-94.9186,28.5,11144222 
TABS,ioos:station:wmo:42043:1,2003-07-24T06:39:00Z,28.9818,-94.9186,28.6,11144222 
TABS,ioos:station:wmo:42043:1,2003-07-24T07:09:00Z,28.9818,-94.9186,28.8,11144222 
TABS,ioos:station:wmo:42043:1,2003-07-24T07:39:00Z,28.9818,-94.9186,28.9,11144222 
TABS,ioos:station:wmo:42043:1,2003-07-24T08:09:00Z,28.9818,-94.9186,28.9,11144222 
TABS,ioos:station:wmo:42043:1,2003-07-24T08:39:00Z,28.9818,-94.9186,29.2,11144222 
TABS,ioos:station:wmo:42043:1,2003-07-24T09:09:00Z,28.9818,-94.9186,29.1,11144222 
TABS,ioos:station:wmo:42043:1,2003-07-24T09:39:00Z,28.9818,-94.9186,29.1,11144222 
TABS,ioos:station:wmo:42043:1,2003-07-24T10:09:00Z,28.9818,-94.9186,29.1,11144222 
TABS,ioos:station:wmo:42043:1,2003-07-24T10:39:00Z,28.9818,-94.9186,29.1,11144222 
TABS,ioos:station:wmo:42043:1,2003-07-24T11:09:00Z,28.9818,-94.9186,29.0,11144222 
TABS,ioos:station:wmo:42043:1,2003-07-24T11:39:00Z,28.9818,-94.9186,29.1,11144222 
TABS,ioos:station:wmo:42043:1,2003-07-24T12:09:00Z,28.9818,-94.9186,29.0,11144222 
TABS,ioos:station:wmo:42043:1,2003-07-24T12:39:00Z,28.9818,-94.9186,29.1,11144222 
TABS,ioos:station:wmo:42043:1,2003-07-24T13:09:00Z,28.9818,-94.9186,29.1,11144222 
TABS,ioos:station:wmo:42043:1,2003-07-24T13:39:00Z,28.9818,-94.9186,29.1,11144222 
TABS,ioos:station:wmo:42043:1,2003-07-24T14:09:00Z,28.9818,-94.9186,28.5,11144222 
TABS,ioos:station:wmo:42043:1,2003-07-24T14:39:00Z,28.9818,-94.9186,28.3,11144222 
TABS,ioos:station:wmo:42043:1,2003-07-24T15:09:00Z,28.9818,-94.9186,28.5,11144222 
TABS,ioos:station:wmo:42043:1,2003-07-24T15:39:00Z,28.9818,-94.9186,28.6,11144222 
TABS,ioos:station:wmo:42043:1,2003-07-24T16:09:00Z,28.9818,-94.9186,28.9,11144222 
TABS,ioos:station:wmo:42043:1,2003-07-24T16:39:00Z,28.9818,-94.9186,29.5,11144222 
TABS,ioos:station:wmo:42043:1,2003-07-24T17:09:00Z,28.9818,-94.9186,29.6,11144222 
TABS,ioos:station:wmo:42043:1,2003-07-24T17:39:00Z,28.9818,-94.9186,29.2,11144222 
TABS,ioos:station:wmo:42043:1,2003-07-24T18:09:00Z,28.9818,-94.9186,29.3,11144222 
TABS,ioos:station:wmo:42043:1,2003-07-24T18:39:00Z,28.9818,-94.9186,29.3,11144222 
TABS,ioos:station:wmo:42043:1,2003-07-24T19:09:00Z,28.9818,-94.9186,29.7,11144222 
TABS,ioos:station:wmo:42043:1,2003-07-24T19:39:00Z,28.9818,-94.9186,29.7,11144222 
TABS,ioos:station:wmo:42043:1,2003-07-24T20:09:00Z,28.9818,-94.9186,29.7,11144222 
TABS,ioos:station:wmo:42043:1,2003-07-24T20:39:00Z,28.9818,-94.9186,29.6,11144222 
TABS,ioos:station:wmo:42043:1,2003-07-24T21:09:00Z,28.9818,-94.9186,28.3,11144222 
TABS,ioos:station:wmo:42043:1,2003-07-24T21:39:00Z,28.9818,-94.9186,28.8,11144222 
TABS,ioos:station:wmo:42043:1,2003-07-24T22:09:00Z,28.9818,-94.9186,29.0,11144222 
TABS,ioos:station:wmo:42043:1,2003-07-24T22:39:00Z,28.9818,-94.9186,29.1,11144222 
TABS,ioos:station:wmo:42043:1,2003-07-24T23:09:00Z,28.9818,-94.9186,29.0,11144222 
TABS,ioos:station:wmo:42043:1,2003-07-24T23:39:00Z,28.9818,-94.9186,28.4,11144222 
TABS,ioos:station:wmo:42043:1,2003-07-25T00:09:00Z,28.9818,-94.9186,28.7,11144222 
TABS,ioos:station:wmo:42043:1,2003-07-25T00:39:00Z,28.9818,-94.9186,28.9,11144222 
TABS,ioos:station:wmo:42043:1,2003-07-25T01:09:00Z,28.9818,-94.9186,29.4,11144222 
TABS,ioos:station:wmo:42043:1,2003-07-25T01:39:00Z,28.9818,-94.9186,29.3,11144222 
TABS,ioos:station:wmo:42043:1,2003-07-25T02:09:00Z,28.9818,-94.9186,29.4,11144222 
TABS,ioos:station:wmo:42043:1,2003-07-25T02:39:00Z,28.9818,-94.9186,29.3,11144222 
TABS,ioos:station:wmo:42043:1,2003-07-25T03:09:00Z,28.9818,-94.9186,29.2,11144222 
TABS,ioos:station:wmo:42043:1,2003-07-25T03:39:00Z,28.9818,-94.9186,29.2,11144222 
TABS,ioos:station:wmo:42043:1,2003-07-25T04:09:00Z,28.9818,-94.9186,29.3,11144222 
TABS,ioos:station:wmo:42043:1,2003-07-25T04:39:00Z,28.9818,-94.9186,29.4,11144222 
TABS,ioos:station:wmo:42043:1,2003-07-25T05:09:00Z,28.9818,-94.9186,29.4,11144222 
TABS,ioos:station:wmo:42043:1,2003-07-25T05:39:00Z,28.9818,-94.9186,29.4,11144222 
TABS,ioos:station:wmo:42043:1,2003-07-25T06:09:00Z,28.9818,-94.9186,29.3,11144222 
TABS,ioos:station:wmo:42043:1,2003-07-25T06:39:00Z,28.9818,-94.9186,29.3,11144222 
TABS,ioos:station:wmo:42043:1,2003-07-25T07:09:00Z,28.9818,-94.9186,29.3,11144222 
TABS,ioos:station:wmo:42043:1,2003-07-25T07:39:00Z,28.9818,-94.9186,29.4,11144222 
TABS,ioos:station:wmo:42043:1,2003-07-25T08:09:00Z,28.9818,-94.9186,29.3,11144222 
TABS,ioos:station:wmo:42043:1,2003-07-25T08:39:00Z,28.9818,-94.9186,29.3,11144222 
TABS,ioos:station:wmo:42043:1,2003-07-25T09:09:00Z,28.9818,-94.9186,29.2,11144222 
TABS,ioos:station:wmo:42043:1,2003-07-25T09:39:00Z,28.9818,-94.9186,29.2,11144222 
TABS,ioos:station:wmo:42043:1,2003-07-25T10:09:00Z,28.9818,-94.9186,29.2,11144222 
TABS,ioos:station:wmo:42043:1,2003-07-25T10:39:00Z,28.9818,-94.9186,27.4,11144222 
TABS,ioos:station:wmo:42043:1,2003-07-25T11:09:00Z,28.9818,-94.9186,27.8,11144222 
TABS,ioos:station:wmo:42043:1,2003-07-25T11:39:00Z,28.9818,-94.9186,29.0,11144222 
TABS,ioos:station:wmo:42043:1,2003-07-25T12:09:00Z,28.9818,-94.9186,28.6,11144222 
TABS,ioos:station:wmo:42043:1,2003-07-25T12:39:00Z,28.9818,-94.9186,28.7,11144222 
TABS,ioos:station:wmo:42043:1,2003-07-25T13:09:00Z,28.9818,-94.9186,28.8,11144222 
TABS,ioos:station:wmo:42043:1,2003-07-25T13:39:00Z,28.9818,-94.9186,29.1,11144222 
TABS,ioos:station:wmo:42043:1,2003-07-25T14:09:00Z,28.9818,-94.9186,29.2,11144222 
TABS,ioos:station:wmo:42043:1,2003-07-25T14:39:00Z,28.9818,-94.9186,29.2,11144222 
TABS,ioos:station:wmo:42043:1,2003-07-25T15:09:00Z,28.9818,-94.9186,29.2,11144222 
TABS,ioos:station:wmo:42043:1,2003-07-25T15:39:00Z,28.9818,-94.9186,29.2,11144222 
TABS,ioos:station:wmo:42043:1,2003-07-25T16:09:00Z,28.9818,-94.9186,29.3,11144222 
TABS,ioos:station:wmo:42043:1,2003-07-25T16:39:00Z,28.9818,-94.9186,29.3,11144222 
TABS,ioos:station:wmo:42043:1,2003-07-25T17:09:00Z,28.9818,-94.9186,29.3,11144222 
TABS,ioos:station:wmo:42043:1,2003-07-25T17:39:00Z,28.9818,-94.9186,29.4,11144222 
TABS,ioos:station:wmo:42043:1,2003-07-25T18:09:00Z,28.9818,-94.9186,29.5,11144222 
TABS,ioos:station:wmo:42043:1,2003-07-25T18:39:00Z,28.9818,-94.9186,29.6,11144222 
TABS,ioos:station:wmo:42043:1,2003-07-25T19:09:00Z,28.9818,-94.9186,29.6,11144222 
TABS,ioos:station:wmo:42043:1,2003-07-25T19:39:00Z,28.9818,-94.9186,28.4,11144222 
TABS,ioos:station:wmo:42043:1,2003-07-25T20:09:00Z,28.9818,-94.9186,29.1,11144222 
TABS,ioos:station:wmo:42043:1,2003-07-25T20:39:00Z,28.9818,-94.9186,29.6,11144222 
TABS,ioos:station:wmo:42043:1,2003-07-25T21:09:00Z,28.9818,-94.9186,29.6,11144222 
TABS,ioos:station:wmo:42043:1,2003-07-25T21:39:00Z,28.9818,-94.9186,29.7,11144222 
TABS,ioos:station:wmo:42043:1,2003-07-25T22:09:00Z,28.9818,-94.9186,29.8,11144222 
TABS,ioos:station:wmo:42043:1,2003-07-25T22:39:00Z,28.9818,-94.9186,29.8,11144222 
TABS,ioos:station:wmo:42043:1,2003-07-25T23:09:00Z,28.9818,-94.9186,29.7,11144222 
TABS,ioos:station:wmo:42043:1,2003-07-25T23:39:00Z,28.9818,-94.9186,29.7,11144222 
TABS,ioos:station:wmo:42043:1,2003-07-26T00:09:00Z,28.9818,-94.9186,29.6,11144222 
TABS,ioos:station:wmo:42043:1,2003-07-26T00:39:00Z,28.9818,-94.9186,29.5,11144222 
TABS,ioos:station:wmo:42043:1,2003-07-26T01:09:00Z,28.9818,-94.9186,29.3,11144222 
TABS,ioos:station:wmo:42043:1,2003-07-26T01:39:00Z,28.9818,-94.9186,29.3,11144222 
TABS,ioos:station:wmo:42043:1,2003-07-26T02:09:00Z,28.9818,-94.9186,29.3,11144222 
TABS,ioos:station:wmo:42043:1,2003-07-26T02:39:00Z,28.9818,-94.9186,29.2,11144222 
TABS,ioos:station:wmo:42043:1,2003-07-26T03:09:00Z,28.9818,-94.9186,29.0,11144222 
TABS,ioos:station:wmo:42043:1,2003-07-26T03:39:00Z,28.9818,-94.9186,29.0,11144222 
TABS,ioos:station:wmo:42043:1,2003-07-26T04:09:00Z,28.9818,-94.9186,28.9,11144222 
TABS,ioos:station:wmo:42043:1,2003-07-26T04:39:00Z,28.9818,-94.9186,28.9,11144222 
TABS,ioos:station:wmo:42043:1,2003-07-26T05:09:00Z,28.9818,-94.9186,29.0,11144222 
TABS,ioos:station:wmo:42043:1,2003-07-26T05:39:00Z,28.9818,-94.9186,29.0,11144222 
TABS,ioos:station:wmo:42043:1,2003-07-26T06:09:00Z,28.9818,-94.9186,29.0,11144222 
TABS,ioos:station:wmo:42043:1,2003-07-26T06:39:00Z,28.9818,-94.9186,29.0,11144222 
TABS,ioos:station:wmo:42043:1,2003-07-26T07:09:00Z,28.9818,-94.9186,29.0,11144222 
TABS,ioos:station:wmo:42043:1,2003-07-26T07:39:00Z,28.9818,-94.9186,29.0,11144222 
TABS,ioos:station:wmo:42043:1,2003-07-26T08:09:00Z,28.9818,-94.9186,29.0,11144222 
TABS,ioos:station:wmo:42043:1,2003-07-26T08:39:00Z,28.9818,-94.9186,29.0,11144222 
TABS,ioos:station:wmo:42043:1,2003-07-26T09:09:00Z,28.9818,-94.9186,29.1,11144222 
TABS,ioos:station:wmo:42043:1,2003-07-26T09:39:00Z,28.9818,-94.9186,29.1,11144222 
TABS,ioos:station:wmo:42043:1,2003-07-26T10:09:00Z,28.9818,-94.9186,29.2,11144222 
TABS,ioos:station:wmo:42043:1,2003-07-26T10:39:00Z,28.9818,-94.9186,29.2,11144222 
TABS,ioos:station:wmo:42043:1,2003-07-26T11:09:00Z,28.9818,-94.9186,29.2,11144222 
TABS,ioos:station:wmo:42043:1,2003-07-26T11:39:00Z,28.9818,-94.9186,29.2,11144222 
TABS,ioos:station:wmo:42043:1,2003-07-26T12:09:00Z,28.9818,-94.9186,29.2,11144222 
TABS,ioos:station:wmo:42043:1,2003-07-26T12:39:00Z,28.9818,-94.9186,29.2,11144222 
TABS,ioos:station:wmo:42043:1,2003-07-26T13:09:00Z,28.9818,-94.9186,29.3,11144222 
TABS,ioos:station:wmo:42043:1,2003-07-26T13:39:00Z,28.9818,-94.9186,29.3,11144222 
TABS,ioos:station:wmo:42043:1,2003-07-26T14:09:00Z,28.9818,-94.9186,29.4,11144222 
TABS,ioos:station:wmo:42043:1,2003-07-26T14:39:00Z,28.9818,-94.9186,29.5,11144222 
TABS,ioos:station:wmo:42043:1,2003-07-26T15:09:00Z,28.9818,-94.9186,29.3,11144222 
TABS,ioos:station:wmo:42043:1,2003-07-26T15:39:00Z,28.9818,-94.9186,29.6,11144222 
TABS,ioos:station:wmo:42043:1,2003-07-26T16:09:00Z,28.9818,-94.9186,29.5,11144222 
TABS,ioos:station:wmo:42043:1,2003-07-26T16:39:00Z,28.9818,-94.9186,29.5,11144222 
TABS,ioos:station:wmo:42043:1,2003-07-26T17:09:00Z,28.9818,-94.9186,29.4,11144222 
TABS,ioos:station:wmo:42043:1,2003-07-26T17:39:00Z,28.9818,-94.9186,29.4,11144222 
TABS,ioos:station:wmo:42043:1,2003-07-26T18:09:00Z,28.9818,-94.9186,29.6,11144222 
TABS,ioos:station:wmo:42043:1,2003-07-26T18:39:00Z,28.9818,-94.9186,29.7,11144222 
TABS,ioos:station:wmo:42043:1,2003-07-26T19:09:00Z,28.9818,-94.9186,29.7,11144222 
TABS,ioos:station:wmo:42043:1,2003-07-26T19:39:00Z,28.9818,-94.9186,29.7,11144222 
TABS,ioos:station:wmo:42043:1,2003-07-26T20:09:00Z,28.9818,-94.9186,29.8,11144222 
TABS,ioos:station:wmo:42043:1,2003-07-26T20:39:00Z,28.9818,-94.9186,27.4,11144222 
TABS,ioos:station:wmo:42043:1,2003-07-26T21:09:00Z,28.9818,-94.9186,29.2,11144222 
TABS,ioos:station:wmo:42043:1,2003-07-26T21:39:00Z,28.9818,-94.9186,29.0,11144222 
TABS,ioos:station:wmo:42043:1,2003-07-26T22:09:00Z,28.9818,-94.9186,29.7,11144222 
TABS,ioos:station:wmo:42043:1,2003-07-26T22:39:00Z,28.9818,-94.9186,29.8,11144222 
TABS,ioos:station:wmo:42043:1,2003-07-26T23:09:00Z,28.9818,-94.9186,29.9,11144222 
TABS,ioos:station:wmo:42043:1,2003-07-26T23:39:00Z,28.9818,-94.9186,29.7,11144222 
TABS,ioos:station:wmo:42043:1,2003-07-27T00:09:00Z,28.9818,-94.9186,29.6,11144222 
TABS,ioos:station:wmo:42043:1,2003-07-27T00:39:00Z,28.9818,-94.9186,29.6,11144222 
TABS,ioos:station:wmo:42043:1,2003-07-27T01:09:00Z,28.9818,-94.9186,29.5,11144222 
TABS,ioos:station:wmo:42043:1,2003-07-27T01:39:00Z,28.9818,-94.9186,29.4,11144222 
TABS,ioos:station:wmo:42043:1,2003-07-27T02:09:00Z,28.9818,-94.9186,29.5,11144222 
TABS,ioos:station:wmo:42043:1,2003-07-27T02:39:00Z,28.9818,-94.9186,29.5,11144222 
TABS,ioos:station:wmo:42043:1,2003-07-27T03:09:00Z,28.9818,-94.9186,29.5,11144222 
TABS,ioos:station:wmo:42043:1,2003-07-27T03:39:00Z,28.9818,-94.9186,29.4,11144222 
TABS,ioos:station:wmo:42043:1,2003-07-27T04:09:00Z,28.9818,-94.9186,29.3,11144222 
TABS,ioos:station:wmo:42043:1,2003-07-27T04:39:00Z,28.9818,-94.9186,29.3,11144222 
TABS,ioos:station:wmo:42043:1,2003-07-27T05:09:00Z,28.9818,-94.9186,29.3,11144222 
TABS,ioos:station:wmo:42043:1,2003-07-27T05:39:00Z,28.9818,-94.9186,29.2,11144222 
TABS,ioos:station:wmo:42043:1,2003-07-27T06:09:00Z,28.9818,-94.9186,29.3,11144222 
TABS,ioos:station:wmo:42043:1,2003-07-27T06:39:00Z,28.9818,-94.9186,29.2,11144222 
TABS,ioos:station:wmo:42043:1,2003-07-27T07:09:00Z,28.9818,-94.9186,29.2,11144222 
TABS,ioos:station:wmo:42043:1,2003-07-27T07:39:00Z,28.9818,-94.9186,29.1,11144222 
TABS,ioos:station:wmo:42043:1,2003-07-27T08:09:00Z,28.9818,-94.9186,29.1,11144222 
TABS,ioos:station:wmo:42043:1,2003-07-27T08:39:00Z,28.9818,-94.9186,29.1,11144222 
TABS,ioos:station:wmo:42043:1,2003-07-27T09:09:00Z,28.9818,-94.9186,29.0,11144222 
TABS,ioos:station:wmo:42043:1,2003-07-27T09:39:00Z,28.9818,-94.9186,29.0,11144222 
TABS,ioos:station:wmo:42043:1,2003-07-27T10:09:00Z,28.9818,-94.9186,29.0,11144222 
TABS,ioos:station:wmo:42043:1,2003-07-27T10:39:00Z,28.9818,-94.9186,29.0,11144222 
TABS,ioos:station:wmo:42043:1,2003-07-27T11:09:00Z,28.9818,-94.9186,29.0,11144222 
TABS,ioos:station:wmo:42043:1,2003-07-27T11:39:00Z,28.9818,-94.9186,28.9,11144222 
TABS,ioos:station:wmo:42043:1,2003-07-27T12:09:00Z,28.9818,-94.9186,29.1,11144222 
TABS,ioos:station:wmo:42043:1,2003-07-27T12:39:00Z,28.9818,-94.9186,29.1,11144222 